This is the latest recevied weather packets stored in our database for station/object EB5AGF-13. If no packets are shown the sender has not sent any weather packets the latest 10 day(s).
| Time | Temp. | Humidity | Pressure | Rain* | Wind** | Luminosity | Snow |
|---|---|---|---|---|---|---|---|
| 1777706193 | 19.44° C | 85% | 1017.6 hPa | 0 mm | 0.89 m/s, 1° | 40 W/m² | - |
| 1777705893 | 19.44° C | 85% | 1017.4 hPa | 0 mm | 1.34 m/s, 73° | 39 W/m² | - |
| 1777705592 | 19.44° C | 85% | 1017.6 hPa | 0 mm | 1.79 m/s, 98° | 65 W/m² | - |
| 1777705291 | 19.44° C | 85% | 1017.6 hPa | 0 mm | 0.89 m/s, 84° | 67 W/m² | - |
| 1777704987 | 19.44° C | 85% | 1017.7 hPa | 0 mm | 0.89 m/s, 9° | 65 W/m² | - |
| 1777704683 | 18.89° C | 86% | 1017.5 hPa | 0 mm | 1.79 m/s, 21° | 110 W/m² | - |
| 1777704379 | 18.89° C | 86% | 1017.5 hPa | 0 mm | 3.13 m/s, 358° | 82 W/m² | - |
| 1777704075 | 18.89° C | 86% | 1017.5 hPa | 0 mm | 1.79 m/s, 53° | 59 W/m² | - |
| 1777703771 | 18.89° C | 86% | 1017.7 hPa | 0 mm | 0.89 m/s, 9° | 50 W/m² | - |
| 1777703467 | 18.89° C | 86% | 1017.7 hPa | 0 mm | 0.45 m/s, 2° | 40 W/m² | - |
| 1777679868 | 18.33° C | 87% | 1019.1 hPa | 0 mm | 0.45 m/s, 354° | 0 W/m² | - |
| 1777679564 | 18.33° C | 87% | 1019.2 hPa | 0 mm | 0.89 m/s, 348° | 0 W/m² | - |
| 1777679259 | 18.33° C | 87% | 1019.2 hPa | 0 mm | 1.34 m/s, 349° | 0 W/m² | - |
| 1777678953 | 18.33° C | 87% | 1019 hPa | 0 mm | 0.45 m/s, 328° | 0 W/m² | - |
| 1777678651 | 18.33° C | 87% | 1019.1 hPa | 0 mm | 0.45 m/s, 25° | 0 W/m² | - |
| 1777678348 | 18.33° C | 87% | 1019.3 hPa | 0 mm | 0.45 m/s, 354° | 0 W/m² | - |
| 1777678044 | 18.33° C | 88% | 1019 hPa | 0 mm | 0.45 m/s, 4° | 0 W/m² | - |
| 1777677741 | 18.89° C | 88% | 1019.5 hPa | 0 mm | 0.89 m/s, 18° | 0 W/m² | - |
| 1777677425 | 18.33° C | 88% | 1019.4 hPa | 0 mm | 0.89 m/s, 346° | 0 W/m² | - |
| 1777677115 | 18.33° C | 88% | 1019.3 hPa | 0 mm | 0.45 m/s, 3° | 0 W/m² | - |
| 1777676811 | 18.33° C | 88% | 1019.3 hPa | 0 mm | 1.79 m/s, 68° | 0 W/m² | - |
| 1777676507 | 18.33° C | 88% | 1019.3 hPa | 0 mm | 1.34 m/s, 2° | 0 W/m² | - |
| 1777676204 | 18.33° C | 88% | 1019.4 hPa | 0 mm | 0.45 m/s, 353° | 0 W/m² | - |
| 1777675900 | 18.33° C | 88% | 1019.3 hPa | 0 mm | 0.89 m/s, 43° | 0 W/m² | - |
| 1777675596 | 18.33° C | 88% | 1019.4 hPa | 0 mm | 0.45 m/s, 33° | 0 W/m² | - |
* Rain latest hour (hover to see other rain measurements)
** Current wind speed in m/s (hover to see current wind gust speed)